TimeEDT,TemperatureF,Dew PointF,Humidity,Sea Level PressureIn,VisibilityMPH,Wind Direction,Wind SpeedMPH,Gust SpeedMPH,PrecipitationIn,Events,Conditions,WindDirDegrees,DateUTC
12:15 AM,64.4,64.4,100,29.96,1.0,NE,8.1,-,N/A,,Overcast,40,2013-08-29 04:15:00
12:35 AM,64.4,64.4,100,29.96,2.0,NNE,9.2,-,N/A,,Overcast,30,2013-08-29 04:35:00
12:55 AM,64.4,64.4,100,29.96,4.0,NNE,8.1,-,N/A,,Overcast,30,2013-08-29 04:55:00
1:15 AM,64.4,64.4,100,29.96,8.0,NE,8.1,-,N/A,,Overcast,40,2013-08-29 05:15:00
1:35 AM,64.4,64.4,100,29.95,5.0,NNE,4.6,-,N/A,,Overcast,20,2013-08-29 05:35:00
1:55 AM,64.4,64.4,100,29.95,8.0,NNE,5.8,-,N/A,,Overcast,30,2013-08-29 05:55:00
2:15 AM,64.4,64.4,100,29.95,8.0,NNE,5.8,-,N/A,,Overcast,30,2013-08-29 06:15:00
2:35 AM,64.4,64.4,100,29.95,8.0,NE,6.9,-,N/A,,Overcast,40,2013-08-29 06:35:00
2:55 AM,64.4,64.4,100,29.95,9.0,NE,8.1,-,N/A,,Overcast,40,2013-08-29 06:55:00
3:15 AM,66.2,64.4,94,29.95,10.0,NE,8.1,-,N/A,,Overcast,50,2013-08-29 07:15:00
3:35 AM,66.2,64.4,94,29.96,10.0,NE,5.8,-,N/A,,Overcast,50,2013-08-29 07:35:00
3:55 AM,66.2,64.4,94,29.96,10.0,NE,6.9,-,N/A,,Overcast,40,2013-08-29 07:55:00
4:15 AM,66.2,64.4,94,29.95,10.0,NE,8.1,-,N/A,,Overcast,50,2013-08-29 08:15:00
4:35 AM,-9999,-9999,N/A,29.95,-9999.0,NE,9.2,-,N/A,,Unknown,50,2013-08-29 08:35:00
4:55 AM,66.2,64.4,94,29.96,10.0,NE,6.9,-,N/A,,Overcast,40,2013-08-29 08:55:00
5:15 AM,66.2,64.4,94,29.96,9.0,NE,9.2,16.1,N/A,,Overcast,50,2013-08-29 09:15:00
5:35 AM,64.4,64.4,100,29.96,10.0,NE,10.4,-,N/A,,Overcast,50,2013-08-29 09:35:00
5:55 AM,64.4,64.4,100,29.97,10.0,NE,11.5,-,N/A,,Overcast,40,2013-08-29 09:55:00
6:15 AM,64.4,64.4,100,29.98,10.0,NE,12.7,-,N/A,,Overcast,50,2013-08-29 10:15:00
6:35 AM,64.4,64.4,100,29.99,7.0,NE,13.8,17.3,N/A,,Overcast,40,2013-08-29 10:35:00
6:55 AM,64.4,64.4,100,29.99,2.5,NNE,12.7,17.3,N/A,,Overcast,30,2013-08-29 10:55:00
7:15 AM,64.4,64.4,100,29.99,6.0,NNE,10.4,16.1,N/A,,Overcast,30,2013-08-29 11:15:00
7:35 AM,64.4,64.4,100,29.99,9.0,NE,11.5,19.6,N/A,,Overcast,40,2013-08-29 11:35:00
7:55 AM,64.4,64.4,100,29.99,10.0,NE,13.8,17.3,N/A,,Overcast,40,2013-08-29 11:55:00
8:15 AM,64.4,64.4,100,30.00,10.0,NE,12.7,-,N/A,,Overcast,50,2013-08-29 12:15:00
8:35 AM,64.4,64.4,100,30.01,10.0,NNE,11.5,-,N/A,,Overcast,30,2013-08-29 12:35:00
8:55 AM,64.4,64.4,100,30.01,10.0,NE,11.5,16.1,N/A,,Overcast,40,2013-08-29 12:55:00
9:15 AM,64.4,64.4,100,30.02,10.0,NNE,9.2,-,N/A,,Overcast,20,2013-08-29 13:15:00
9:35 AM,64.4,64.4,100,30.02,9.0,NE,8.1,-,N/A,,Overcast,40,2013-08-29 13:35:00
9:55 AM,64.4,64.4,100,30.02,10.0,NE,10.4,-,N/A,,Overcast,40,2013-08-29 13:55:00
10:15 AM,66.2,64.4,94,30.03,10.0,NNE,8.1,-,N/A,,Overcast,30,2013-08-29 14:15:00
10:35 AM,66.2,64.4,94,30.03,8.0,NNE,10.4,16.1,N/A,,Overcast,30,2013-08-29 14:35:00
10:55 AM,64.4,64.4,100,30.03,8.0,NE,11.5,-,N/A,,Overcast,40,2013-08-29 14:55:00
11:15 AM,66.2,64.4,94,30.03,8.0,NNE,6.9,-,N/A,,Overcast,20,2013-08-29 15:15:00
11:35 AM,66.2,62.6,88,30.03,10.0,NE,11.5,-,N/A,,Overcast,40,2013-08-29 15:35:00
11:55 AM,66.2,62.6,88,30.03,10.0,NNE,8.1,-,N/A,,Overcast,30,2013-08-29 15:55:00
12:15 PM,66.2,62.6,88,30.03,7.0,NNE,8.1,-,N/A,,Overcast,30,2013-08-29 16:15:00
12:35 PM,66.2,64.4,94,30.02,2.0,NNE,6.9,-,N/A,,Overcast,30,2013-08-29 16:35:00
12:55 PM,66.2,64.4,94,30.02,2.0,NE,10.4,-,N/A,,Overcast,40,2013-08-29 16:55:00
1:15 PM,64.4,64.4,100,30.03,2.5,ENE,15.0,-,N/A,,Mostly Cloudy,70,2013-08-29 17:15:00
1:35 PM,64.4,64.4,100,30.03,5.0,NE,8.1,16.1,N/A,,Overcast,50,2013-08-29 17:35:00
1:55 PM,66.2,64.4,94,30.02,9.0,NE,11.5,-,N/A,,Overcast,50,2013-08-29 17:55:00
2:15 PM,66.2,62.6,88,30.02,8.0,NE,12.7,16.1,N/A,,Overcast,40,2013-08-29 18:15:00
2:35 PM,66.2,62.6,88,30.02,7.0,NE,10.4,-,N/A,,Overcast,40,2013-08-29 18:35:00
2:55 PM,66.2,62.6,88,30.02,6.0,NE,16.1,20.7,N/A,,Overcast,50,2013-08-29 18:55:00
3:15 PM,66.2,62.6,88,30.02,9.0,NE,12.7,-,N/A,,Mostly Cloudy,50,2013-08-29 19:15:00
3:35 PM,66.2,62.6,88,30.02,10.0,NE,12.7,-,N/A,,Overcast,50,2013-08-29 19:35:00
3:55 PM,66.2,60.8,83,30.02,10.0,NE,15.0,18.4,N/A,,Overcast,40,2013-08-29 19:55:00
4:15 PM,64.4,60.8,88,30.03,10.0,NE,12.7,16.1,N/A,,Overcast,50,2013-08-29 20:15:00
4:35 PM,64.4,60.8,88,30.03,10.0,NE,11.5,17.3,N/A,,Overcast,40,2013-08-29 20:35:00
4:55 PM,64.4,59.0,83,30.03,10.0,NE,13.8,18.4,N/A,,Overcast,50,2013-08-29 20:55:00
5:15 PM,64.4,59.0,83,30.04,10.0,NE,13.8,19.6,N/A,,Overcast,40,2013-08-29 21:15:00
5:35 PM,64.4,59.0,83,30.04,10.0,NE,13.8,20.7,N/A,,Overcast,50,2013-08-29 21:35:00
5:55 PM,62.6,59.0,88,30.04,10.0,NE,13.8,-,N/A,,Overcast,40,2013-08-29 21:55:00
6:15 PM,62.6,59.0,88,30.05,10.0,NNE,11.5,18.4,N/A,,Overcast,30,2013-08-29 22:15:00
6:35 PM,62.6,59.0,88,30.05,10.0,NE,12.7,19.6,N/A,,Overcast,40,2013-08-29 22:35:00
6:55 PM,62.6,57.2,82,30.05,10.0,NE,11.5,18.4,N/A,,Overcast,40,2013-08-29 22:55:00
7:15 PM,62.6,57.2,82,30.04,10.0,NE,12.7,18.4,N/A,,Overcast,40,2013-08-29 23:15:00
7:35 PM,62.6,57.2,82,30.04,10.0,NE,12.7,17.3,N/A,,Overcast,40,2013-08-29 23:35:00
7:55 PM,60.8,57.2,88,30.04,10.0,NE,12.7,17.3,N/A,,Overcast,40,2013-08-29 23:55:00
8:15 PM,60.8,57.2,88,30.04,10.0,NNE,10.4,18.4,N/A,,Overcast,30,2013-08-30 00:15:00
8:35 PM,60.8,57.2,88,30.04,10.0,NE,9.2,16.1,N/A,,Scattered Clouds,40,2013-08-30 00:35:00
8:55 PM,59.0,57.2,94,30.04,10.0,NE,4.6,-,N/A,,Partly Cloudy,40,2013-08-30 00:55:00
9:15 PM,59.0,57.2,94,30.04,10.0,NE,6.9,-,N/A,,Clear,40,2013-08-30 01:15:00
9:35 PM,59.0,57.2,94,30.04,10.0,NE,8.1,-,N/A,,Clear,40,2013-08-30 01:35:00
9:55 PM,59.0,57.2,94,30.04,10.0,NE,9.2,-,N/A,,Clear,40,2013-08-30 01:55:00
10:15 PM,59.0,57.2,94,30.03,10.0,NE,8.1,-,N/A,,Clear,50,2013-08-30 02:15:00
10:35 PM,59.0,57.2,94,30.04,10.0,NNE,6.9,-,N/A,,Clear,30,2013-08-30 02:35:00
10:55 PM,59.0,57.2,94,30.03,10.0,NE,9.2,-,N/A,,Clear,40,2013-08-30 02:55:00
11:15 PM,59.0,57.2,94,30.03,10.0,NNE,8.1,-,N/A,,Clear,30,2013-08-30 03:15:00
11:35 PM,59.0,55.4,88,30.03,10.0,NE,6.9,-,N/A,,Clear,40,2013-08-30 03:35:00
11:55 PM,59.0,55.4,88,30.02,10.0,NNE,5.8,-,N/A,,Clear,20,2013-08-30 03:55:00